IRIDIUM 149

Last updated on Sun Jun 21 2026 00:03:14 GMT+0000 (Coordinated Universal Time)

1 43250U 18030B 26171.37652126 .00000068 00000+0 17392-4 0 9994 2 43250 86.3959 289.0331 0002266 93.5706 266.5749 14.34217939430614
UTC large
Height (km)
Speed (km/s)
/
Latitude / Longitude
Inclination (degrees)
Orbital Period (minutes)
Azimuth
Elevation
Range (km)
Doppler Factor

Next 0 passes for location: London (51.5072 / 0.1276)

No passes found over London.
IRIDIUM 149